EW1449 Weather Reports


Display with metric or nautical units.
time (UTC)temp
F
wind
direction
speed
MPH
gust
MPH
rain 1hr
in
rain 24hr
in
rain mn
in
humidity
%
barometer
mb
20260506172401 57 197 6.0 15.0 0.00 0.00 0.00 95 1014.2
20260506171859 57 181 2.0 7.0 0.00 0.00 0.00 95 1014.5
20260506171356 57 186 7.0 10.0 0.00 0.00 0.00 95 1014.5
20260506170853 57 215 4.0 14.0 0.00 0.00 0.00 94 1014.5
20260506170349 57 231 6.0 17.0 0.00 0.00 0.00 94 1014.9
20260506165843 57 248 4.0 9.0 0.00 0.00 0.00 93 1015.0
20260506165340 58 208 4.0 13.0 0.00 0.00 0.00 91 1014.7
20260506164836 58 261 6.0 7.0 0.00 0.00 0.00 91 1014.7
20260506164333 58 221 9.0 14.0 0.00 0.00 0.00 91 1014.8
20260506163831 58 244 6.0 11.0 0.00 0.00 0.00 91 1014.8
20260506163325 58 221 6.0 9.0 0.00 0.00 0.00 91 1014.9
20260506162821 58 247 8.0 10.0 0.00 0.00 0.00 90 1015.0
20260506162319 59 206 7.0 10.0 0.00 0.00 0.00 90 1015.0
20260506161817 59 257 8.0 10.0 0.00 0.00 0.00 89 1015.1
20260506161314 58 229 6.0 16.0 0.00 0.00 0.00 89 1015.2
20260506160811 58 207 2.0 10.0 0.00 0.00 0.00 90 1015.0
20260506160307 58 236 5.0 21.0 0.00 0.00 0.00 89 1015.3
20260506155806 59 199 9.0 11.0 0.00 0.00 0.00 89 1015.2
20260506155305 58 205 5.0 17.0 0.00 0.00 0.00 89 1015.1
20260506153410 59 206 7.0 14.0 0.00 0.00 0.00 88 1015.5
20260506152907 59 231 7.0 10.0 0.00 0.00 0.00 88 1015.5
20260506152404 59 245 7.0 10.0 0.00 0.00 0.00 88 1015.3
20260506151903 59 225 14.0 16.0 0.00 0.00 0.00 88 1015.6
20260506151359 59 256 5.0 9.0 0.00 0.00 0.00 88 1015.4
20260506150857 59 260 2.0 14.0 0.00 0.00 0.00 88 1015.3
20260506150353 59 216 6.0 11.0 0.00 0.00 0.00 88 1015.3
20260506145850 59 159 9.0 15.0 0.00 0.00 0.00 88 1015.2
20260506145346 59 234 11.0 15.0 0.00 0.00 0.00 88 1015.3
20260506144844 59 238 6.0 10.0 0.00 0.00 0.00 88 1015.5
20260506144340 59 269 4.0 9.0 0.00 0.00 0.00 88 1015.4
20260506143839 60 182 5.0 10.0 0.00 0.00 0.00 88 1015.7
20260506143335 59 243 3.0 16.0 0.00 0.00 0.00 88 1015.7
20260506142834 59 199 4.0 16.0 0.00 0.00 0.00 88 1015.9
20260506142331 60 232 7.0 14.0 0.00 0.00 0.00 87 1015.9
20260506141829 60 238 4.0 8.0 0.00 0.00 0.00 87 1015.8
20260506141327 60 206 9.0 11.0 0.00 0.00 0.00 86 1015.8
20260506140825 61 256 10.0 13.0 0.00 0.00 0.00 85 1015.8
20260506140321 60 255 8.0 15.0 0.00 0.00 0.00 86 1015.9
20260506135818 60 246 7.0 15.0 0.00 0.00 0.00 86 1016.0
20260506135315 60 244 4.0 11.0 0.00 0.00 0.00 87 1016.0
20260506134811 59 262 10.0 16.0 0.00 0.00 0.00 88 1016.1
20260506134308 60 234 3.0 10.0 0.00 0.00 0.00 88 1016.0
20260506133805 60 209 5.0 11.0 0.00 0.00 0.00 87 1016.1
20260506133302 60 256 4.0 14.0 0.00 0.00 0.00 86 1016.0
20260506132758 60 277 12.0 16.0 0.00 0.00 0.00 86 1016.0
20260506132256 60 236 3.0 9.0 0.00 0.00 0.00 87 1016.0
20260506131754 60 211 3.0 11.0 0.00 0.00 0.00 88 1016.1
20260506131249 59 212 2.0 4.0 0.00 0.00 0.00 88 1015.9
20260506130746 59 221 3.0 11.0 0.00 0.00 0.00 90 1015.9
20260506130243 58 223 4.0 8.0 0.00 0.00 0.00 90 1015.8
20260506125741 59 247 4.0 7.0 0.00 0.00 0.00 90 1015.9
20260506125239 59 250 5.0 11.0 0.00 0.00 0.00 89 1015.8
20260506124737 59 162 1.0 11.0 0.00 0.00 0.00 89 1016.0
20260506124234 59 227 9.0 11.0 0.00 0.00 0.00 88 1015.9
20260506123732 59 241 6.0 16.0 0.00 0.00 0.00 89 1016.0
20260506123230 60 244 9.0 13.0 0.00 0.00 0.00 88 1016.1
20260506122727 59 221 11.0 15.0 0.00 0.00 0.00 88 1016.0
20260506122224 59 229 6.0 11.0 0.00 0.00 0.00 89 1016.3
20260506121722 59 227 4.0 14.0 0.00 0.00 0.00 90 1016.4
20260506121218 59 195 8.0 10.0 0.00 0.00 0.00 90 1016.3
20260506120716 59 209 4.0 9.0 0.00 0.00 0.00 89 1016.3
20260506120214 59 232 4.0 9.0 0.00 0.00 0.00 89 1016.3
20260506115712 59 210 6.0 13.0 0.00 0.00 0.00 90 1016.1
20260506115209 59 209 9.0 13.0 0.00 0.00 0.00 90 1016.1
20260506114707 59 230 6.0 13.0 0.00 0.00 0.00 90 1016.0
20260506114204 59 221 2.0 10.0 0.00 0.00 0.00 90 1016.1
20260506113703 58 238 4.0 10.0 0.00 0.00 0.00 91 1016.0
20260506113200 58 204 6.0 10.0 0.00 0.00 0.00 91 1016.2
20260506112655 58 253 5.0 9.0 0.00 0.00 0.00 91 1016.3
20260506112154 58 203 4.0 6.0 0.00 0.00 0.00 92 1016.3
20260506111651 57 245 5.0 11.0 0.00 0.00 0.00 92 1016.4
20260506111149 57 249 9.0 10.0 0.00 0.00 0.00 93 1016.2
20260506110646 57 236 4.0 8.0 0.00 0.00 0.00 93 1016.3
20260506110143 57 206 3.0 10.0 0.00 0.00 0.00 94 1016.2
20260506105640 57 193 3.0 9.0 0.00 0.00 0.00 93 1016.2
20260506105137 57 249 9.0 11.0 0.00 0.00 0.00 93 1016.3
20260506104634 57 195 7.0 11.0 0.00 0.00 0.00 93 1016.0
20260506104132 57 240 4.0 10.0 0.00 0.00 0.00 93 1015.9
20260506103629 57 239 5.0 7.0 0.00 0.00 0.00 93 1015.9
20260506103126 57 219 5.0 7.0 0.00 0.00 0.00 94 1016.0
20260506102624 57 246 4.0 11.0 0.00 0.00 0.00 94 1015.9
20260506102121 57 206 4.0 11.0 0.00 0.00 0.00 94 1015.9
20260506101618 57 134 3.0 6.0 0.00 0.00 0.00 94 1015.8
20260506101114 57 229 5.0 17.0 0.00 0.00 0.00 94 1015.9
20260506100613 57 204 4.0 10.0 0.00 0.00 0.00 94 1015.7
20260506100110 57 217 7.0 15.0 0.00 0.00 0.00 94 1015.6
20260506095609 57 242 2.0 14.0 0.00 0.00 0.00 94 1016.1
20260506095105 57 232 4.0 10.0 0.00 0.00 0.00 95 1015.9
20260506094603 57 215 4.0 16.0 0.00 0.00 0.00 95 1015.9
20260506094101 57 250 6.0 11.0 0.00 0.00 0.00 95 1016.0
20260506093559 57 243 6.0 11.0 0.00 0.00 0.00 95 1015.8
20260506093056 57 233 2.0 10.0 0.00 0.00 0.00 95 1015.9
20260506092554 57 207 8.0 10.0 0.00 0.00 0.00 95 1015.8
20260506092050 57 246 6.0 10.0 0.00 0.00 0.00 95 1016.0
20260506091549 57 246 3.0 7.0 0.00 0.00 0.00 95 1015.9
20260506091046 57 213 7.0 8.0 0.00 0.00 0.00 95 1016.0
20260506090543 57 246 4.0 7.0 0.00 0.00 0.00 95 1016.1
20260506090039 57 165 4.0 9.0 0.00 0.00 0.00 95 1016.0
20260506085536 57 224 4.0 9.0 0.00 0.00 0.00 94 1016.1
20260506085033 57 222 2.0 8.0 0.00 0.00 0.00 94 1016.1
20260506084530 57 245 2.0 8.0 0.00 0.00 0.00 94 1016.2
20260506084026 57 249 4.0 8.0 0.00 0.00 0.00 94 1016.2
20260506083523 57 226 5.0 9.0 0.00 0.00 0.00 94 1016.1
20260506083021 57 184 3.0 13.0 0.00 0.00 0.00 94 1016.0
20260506082517 57 240 9.0 10.0 0.00 0.00 0.00 94 1016.1
20260506082013 57 229 6.0 9.0 0.00 0.00 0.00 93 1016.3
20260506081511 57 254 6.0 13.0 0.00 0.00 0.00 93 1016.0
20260506081008 57 210 7.0 14.0 0.00 0.00 0.00 93 1016.3
20260506080506 57 216 9.0 11.0 0.00 0.00 0.00 93 1016.2
20260506073449 57 239 2.0 9.0 0.00 0.00 0.00 92 1016.5
20260506072946 57 227 9.0 14.0 0.00 0.00 0.00 92 1016.5
20260506072444 57 246 9.0 10.0 0.00 0.00 0.00 92 1016.4
20260506071942 57 235 8.0 16.0 0.00 0.00 0.00 91 1016.5
20260506071439 57 243 4.0 19.0 0.00 0.00 0.00 91 1016.7
20260506070936 57 201 6.0 14.0 0.00 0.00 0.00 91 1016.5
20260506070433 57 238 7.0 9.0 0.00 0.00 0.00 91 1016.5
20260506062410 58 222 5.0 9.0 0.00 0.00 0.00 90 1016.4
20260506061906 58 221 4.0 11.0 0.00 0.00 0.00 90 1016.4
20260506061403 58 211 8.0 13.0 0.00 0.00 0.00 90 1016.4
20260506060901 58 242 4.0 7.0 0.00 0.00 0.00 89 1016.4
20260506060359 58 223 6.0 15.0 0.00 0.00 0.00 89 1016.4
20260506051330 58 233 8.0 11.0 0.00 0.00 0.00 88 1016.7
20260506050828 58 206 8.0 14.0 0.00 0.00 0.00 88 1016.7
20260506050325 58 223 6.0 14.0 0.00 0.00 0.00 88 1016.5
20260506044816 58 239 5.0 16.0 0.00 0.00 0.00 88 1016.5
20260506044314 59 191 4.0 17.0 0.00 0.00 0.00 88 1016.4
20260506043810 58 241 6.0 14.0 0.00 0.00 0.00 88 1016.4
20260506043308 58 239 7.0 10.0 0.00 0.00 0.00 88 1016.5
20260506042806 59 215 9.0 15.0 0.00 0.00 0.00 88 1016.5
20260506042305 59 200 4.0 16.0 0.00 0.00 0.00 87 1016.6
20260506041803 59 243 3.0 15.0 0.00 0.00 0.00 87 1016.5
20260506041259 59 214 5.0 16.0 0.00 0.00 0.00 87 1016.7
20260506040757 59 210 7.0 13.0 0.00 0.00 0.00 87 1016.6
20260506040254 58 216 8.0 16.0 0.00 0.00 0.00 87 1016.6
20260506035751 58 224 6.0 10.0 0.00 0.00 0.00 88 1016.9
20260506035248 58 160 6.0 9.0 0.00 0.00 0.00 87 1016.7
20260506034744 58 256 8.0 13.0 0.00 0.00 0.00 87 1016.7
20260506034242 58 215 7.0 10.0 0.00 0.00 0.00 87 1016.8
20260506033739 58 220 4.0 14.0 0.00 0.00 0.00 87 1016.7
20260506033236 58 215 7.0 9.0 0.00 0.00 0.00 87 1016.6
20260506032732 58 176 10.0 16.0 0.00 0.00 0.00 86 1016.8
20260506032229 58 205 4.0 6.0 0.00 0.00 0.00 86 1016.8
20260506031725 58 222 7.0 10.0 0.00 0.00 0.00 87 1016.5
20260506031223 58 233 4.0 10.0 0.00 0.00 0.00 87 1016.7
20260506030721 58 243 9.0 10.0 0.00 0.00 0.00 88 1016.6
20260506030218 58 218 3.0 6.0 0.00 0.00 0.00 88 1016.8
20260506025715 58 221 2.0 17.0 0.00 0.00 0.00 87 1016.8
20260506025211 59 212 4.0 8.0 0.00 0.00 0.00 87 1016.6
20260506024708 59 240 7.0 10.0 0.00 0.00 0.00 87 1016.8
20260506024205 59 258 6.0 8.0 0.00 0.00 0.00 87 1016.6
20260506023701 59 243 2.0 10.0 0.00 0.00 0.00 87 1016.6
20260506023159 59 220 9.0 18.0 0.00 0.00 0.00 86 1016.8
20260506022655 59 214 5.0 14.0 0.00 0.00 0.00 86 1016.9
20260506022153 59 252 4.0 11.0 0.00 0.00 0.00 86 1016.8
20260506021651 59 200 4.0 10.0 0.00 0.00 0.00 86 1016.7
20260506021148 59 243 5.0 10.0 0.00 0.00 0.00 86 1016.5
20260506020645 59 218 9.0 13.0 0.00 0.00 0.00 85 1016.7
20260506020143 59 264 6.0 9.0 0.00 0.00 0.00 85 1016.6
20260506015640 59 271 5.0 13.0 0.00 0.00 0.00 85 1016.5
20260506015137 59 242 4.0 15.0 0.00 0.00 0.00 84 1016.5
20260506014635 59 227 7.0 11.0 0.00 0.00 0.00 84 1016.4
20260506014130 59 211 4.0 13.0 0.00 0.00 0.00 84 1016.7
20260506013628 59 207 4.0 10.0 0.00 0.00 0.00 84 1016.3
20260506013125 59 183 5.0 11.0 0.00 0.00 0.00 84 1016.2
20260506012621 59 224 10.0 13.0 0.00 0.00 0.00 84 1016.3
20260506012117 59 232 8.0 10.0 0.00 0.00 0.00 83 1016.2
20260506011610 59 196 6.0 15.0 0.00 0.00 0.00 83 1016.1
20260506011106 59 194 13.0 16.0 0.00 0.00 0.00 82 1016.0
20260506010605 60 255 8.0 14.0 0.00 0.00 0.00 82 1016.1
20260506005559 60 199 9.0 17.0 0.00 0.00 0.00 81 1016.0
20260506005055 60 257 5.0 10.0 0.00 0.00 0.00 81 1015.9
20260506004552 60 218 12.0 17.0 0.00 0.00 0.00 81 1015.7
20260506004048 60 235 9.0 21.0 0.00 0.00 0.00 80 1015.5
20260506003545 60 239 9.0 18.0 0.00 0.00 0.00 80 1015.7
20260506003041 60 197 7.0 13.0 0.00 0.00 0.00 80 1015.6
20260506002537 60 203 18.0 24.0 0.00 0.00 0.00 80 1015.5
20260506002033 60 258 6.0 16.0 0.00 0.00 0.00 80 1015.3
20260506001530 60 234 5.0 17.0 0.00 0.00 0.00 80 1015.6
20260506001027 60 198 16.0 25.0 0.00 0.00 0.00 81 1015.6
20260506000525 60 218 8.0 15.0 0.00 0.00 0.00 81 1015.4
20260506000022 60 206 11.0 19.0 0.00 0.00 0.00 81 1015.2
20260505235520 60 170 9.0 17.0 0.00 0.00 0.00 81 1015.2
20260505235016 59 217 13.0 17.0 0.00 0.00 0.00 82 1015.4
20260505234513 59 196 10.0 13.0 0.00 0.00 0.00 82 1015.2
20260505234010 60 212 8.0 14.0 0.00 0.00 0.00 81 1015.1
20260505233508 60 194 9.0 15.0 0.00 0.00 0.00 82 1014.7
20260505233005 60 208 9.0 15.0 0.00 0.00 0.00 82 1014.7
20260505232503 60 219 5.0 13.0 0.00 0.00 0.00 81 1014.6
20260505232000 60 245 5.0 10.0 0.00 0.00 0.00 81 1014.7
20260505231457 60 203 9.0 17.0 0.00 0.00 0.00 81 1014.5
20260505230955 60 199 5.0 16.0 0.00 0.00 0.00 81 1014.5
20260505230452 60 230 8.0 14.0 0.00 0.00 0.00 81 1014.5
20260505225948 60 185 9.0 13.0 0.00 0.00 0.00 81 1014.6
20260505225446 60 292 9.0 17.0 0.00 0.00 0.00 80 1014.6
20260505224942 60 217 10.0 14.0 0.00 0.00 0.00 80 1014.3
20260505224439 61 216 5.0 14.0 0.00 0.00 0.00 80 1014.2
20260505223936 61 224 10.0 16.0 0.00 0.00 0.00 79 1014.1
20260505223433 61 241 9.0 21.0 0.00 0.00 0.00 79 1014.4
20260505222929 61 233 9.0 14.0 0.00 0.00 0.00 79 1014.3
20260505222425 61 181 8.0 11.0 0.00 0.00 0.00 78 1014.2
20260505221921 61 204 9.0 15.0 0.00 0.00 0.00 78 1014.2
20260505221419 61 219 8.0 15.0 0.00 0.00 0.00 78 1014.0
20260505220916 61 221 12.0 17.0 0.00 0.00 0.00 78 1014.1
20260505220413 61 156 10.0 14.0 0.00 0.00 0.00 79 1014.1
20260505215911 61 226 8.0 15.0 0.00 0.00 0.00 79 1014.3
20260505215408 60 124 4.0 15.0 0.00 0.00 0.00 79 1014.2
20260505214906 60 269 9.0 13.0 0.00 0.00 0.00 80 1014.3
20260505214403 61 263 5.0 17.0 0.00 0.00 0.00 79 1014.0
20260505213900 61 184 7.0 15.0 0.00 0.00 0.00 79 1014.0
20260505213358 61 232 9.0 15.0 0.00 0.00 0.00 78 1014.0
20260505212854 61 218 8.0 15.0 0.00 0.00 0.00 78 1013.9
20260505212351 62 211 10.0 15.0 0.00 0.00 0.00 77 1013.7
20260505211847 62 203 9.0 16.0 0.00 0.00 0.00 77 1013.7
20260505211345 61 196 5.0 15.0 0.00 0.00 0.00 77 1013.8
20260505210841 61 250 11.0 23.0 0.00 0.00 0.00 78 1013.7
20260505210339 62 172 6.0 14.0 0.00 0.00 0.00 77 1013.9
20260505205835 62 240 7.0 18.0 0.00 0.00 0.00 77 1013.6
20260505205334 62 237 6.0 13.0 0.00 0.00 0.00 76 1013.7
20260505204830 63 232 8.0 14.0 0.00 0.00 0.00 76 1013.7
20260505204328 63 202 10.0 16.0 0.00 0.00 0.00 75 1013.7
20260505203825 62 208 9.0 15.0 0.00 0.00 0.00 76 1013.7
20260505203321 63 228 6.0 9.0 0.00 0.00 0.00 75 1013.8
20260505202818 64 224 7.0 11.0 0.00 0.00 0.00 74 1013.8
20260505202314 64 247 5.0 13.0 0.00 0.00 0.00 74 1014.0
20260505201811 63 126 6.0 11.0 0.00 0.00 0.00 75 1013.9
20260505201308 62 249 3.0 10.0 0.00 0.00 0.00 77 1014.3
20260505200807 62 195 8.0 16.0 0.00 0.00 0.00 77 1014.2
20260505200303 62 253 3.0 6.0 0.00 0.00 0.00 78 1014.3
20260505195758 62 216 4.0 8.0 0.00 0.00 0.00 77 1014.5
20260505195256 62 213 2.0 11.0 0.00 0.00 0.00 78 1014.4
20260505194753 63 245 8.0 10.0 0.00 0.00 0.00 76 1014.6
20260505194250 63 187 0.0 11.0 0.00 0.00 0.00 78 1014.5
20260505193745 63 251 6.0 9.0 0.00 0.00 0.00 76 1014.7
20260505193243 64 241 4.0 8.0 0.00 0.00 0.00 76 1014.8
20260505192741 63 256 4.0 6.0 0.00 0.00 0.00 77 1015.0
20260505192239 63 220 8.0 11.0 0.00 0.00 0.00 75 1015.1
20260505191737 64 243 2.0 11.0 0.00 0.00 0.00 77 1015.0
20260505191235 62 194 5.0 13.0 0.00 0.00 0.00 78 1015.1
20260505190731 62 238 4.0 15.0 0.00 0.00 0.00 78 1015.5
20260505190231 62 221 6.0 11.0 0.00 0.00 0.00 80 1015.4
20260505185728 62 246 9.0 16.0 0.00 0.00 0.00 79 1015.5
20260505185224 62 225 4.0 13.0 0.00 0.00 0.00 79 1015.5
20260505184720 62 187 4.0 16.0 0.00 0.00 0.00 80 1015.5
20260505184218 62 248 2.0 11.0 0.00 0.00 0.00 78 1015.5
20260505183714 63 165 8.0 13.0 0.00 0.00 0.00 76 1015.7
20260505183212 62 173 5.0 8.0 0.00 0.00 0.00 78 1015.5
20260505182708 62 207 6.0 13.0 0.00 0.00 0.00 79 1015.9
20260505182205 62 219 7.0 9.0 0.00 0.00 0.00 79 1015.8
20260505181701 62 138 7.0 13.0 0.00 0.00 0.00 79 1015.9
20260505181159 64 225 2.0 10.0 0.00 0.00 0.00 77 1016.1
20260505180655 63 211 3.0 9.0 0.00 0.00 0.00 78 1016.1
20260505180153 62 253 3.0 9.0 0.00 0.00 0.00 80 1016.0
20260505175648 62 210 4.0 11.0 0.00 0.00 0.00 80 1016.2
20260505175145 61 274 6.0 10.0 0.00 0.00 0.00 81 1016.0
20260505174642 63 241 6.0 10.0 0.00 0.00 0.00 79 1016.2
20260505174138 62 240 5.0 9.0 0.00 0.00 0.00 80 1015.9
20260505173635 62 209 5.0 10.0 0.00 0.00 0.00 79 1016.1
20260505173131 64 230 8.0 10.0 0.00 0.00 0.00 77 1016.2